Temperature
20 20 20 19 19 19 18 18 17 16 15 14 13 13 13 13 12 12 12 11 11 11 10 10 10 9 9 9 9 9 9 9 9 9 9 9 9 8 8 8 8 8 7
20 20 20 20 19 19 18 18 18 17 16 15 15 14 14 13 13 12 12 11 11 11 10 10 10 10 9 9 9 9 9 9 9 8 8 8 8 8 8 8 8 8 7
20 20 20 20 19 19 19 19 18 18 17 16 15 13 12 12 11 12 12 12 11 11 11 10 10 10 10 9 9 9 9 9 9 8 8 8 8 8 8 8 8 8 7
20 20 20 20 20 20 19 19 19 18 17 16 15 14 13 13 13 13 13 12 11 11 11 10 10 10 10 9 9 9 9 9 9 9 8 8 8 8 8 8 8 7 7
20 20 20 20 20 20 19 19 19 18 17 16 16 15 14 14 13 13 12 12 11 11 11 10 10 10 10 10 9 9 9 9 9 9 8 8 8 8 7 7 8 8 7
20 20 20 20 20 19 19 19 18 18 17 16 16 15 15 14 13 13 12 12 11 11 11 10 10 10 10 10 9 9 9 9 9 8 8 8 8 8 7 7 7 7 7
19 19 20 19 19 19 19 19 18 18 17 16 16 15 15 14 14 13 13 12 12 11 11 10 10 10 10 10 9 9 9 9 9 8 8 8 8 7 7 6 6 6 7
19 19 19 19 19 19 19 18 18 18 17 16 16 15 14 14 13 13 13 12 12 12 11 11 10 10 10 10 9 9 9 9 8 8 8 8 7 7 7 6 6 5 6
19 19 19 19 19 19 18 18 18 18 17 16 15 15 14 14 13 13 13 12 12 12 11 11 10 10 10 9 9 9 9 9 8 8 8 8 7 7 6 6 5 5 4
18 19 19 19 19 18 18 18 17 17 17 16 15 15 14 14 13 13 12 12 12 11 11 10 10 10 10 9 9 9 8 8 8 8 8 7 7 7 6 6 5 4 4
19 19 18 18 18 18 18 17 17 16 16 15 15 14 14 13 13 13 12 12 12 11 11 10 10 10 9 9 9 9 8 8 8 8 7 7 7 6 6 5 5 4 4
18 18 18 18 18 17 17 17 17 16 16 15 14 14 14 13 13 12 12 12 11 11 10 10 10 9 9 9 9 8 8 8 8 7 7 7 6 6 6 5 5 4 3
17 18 18 17 17 17 17 17 16 16 15 15 14 14 13 13 12 12 12 11 11 11 10 10 10 9 9 9 8 8 8 8 7 7 7 6 6 6 5 5 4 4 3
17 17 18 17 17 17 17 16 16 15 15 14 14 13 13 12 12 12 11 11 11 10 10 10 9 9 9 8 8 8 8 7 7 7 6 6 6 5 5 4 4 3 2
17 17 18 18 17 17 17 16 16 15 15 14 14 13 13 12 11 11 11 11 10 10 10 9 9 9 9 8 8 8 7 7 7 6 6 6 5 5 4 4 3 2 2
17 17 18 18 17 17 17 16 16 15 14 14 13 13 12 12 11 11 10 10 10 10 9 9 9 9 8 8 8 7 7 7 6 6 6 5 5 4 4 3 2 2 1
18 18 18 18 18 17 17 16 16 15 14 14 13 13 12 11 11 10 10 10 9 9 9 9 8 8 8 8 7 7 7 6 6 5 5 5 4 3 3 2 2 1 1
18 18 18 18 17 17 17 16 15 15 14 13 13 12 11 11 10 10 10 9 9 9 8 8 8 8 8 7 7 6 6 6 5 5 4 4 3 3 2 2 1 1 0
18 18 18 17 17 17 16 16 15 15 14 13 13 12 11 11 10 10 9 9 8 8 8 8 8 7 7 7 6 6 5 5 5 4 4 3 3 2 1 1 1 0 -0
17 17 17 17 17 16 16 15 15 14 14 13 12 12 11 10 10 9 9 8 8 8 8 7 7 7 6 6 5 5 4 4 4 3 3 2 2 1 1 0 -0 -1 -1
16 16 16 16 16 16 15 15 15 14 13 13 12 11 11 10 9 9 8 8 8 7 7 7 6 6 6 5 5 4 4 3 3 3 2 2 1 0 -0 -1 -1 -1 -2
16 16 16 16 15 15 15 15 14 14 13 12 11 11 10 10 9 8 8 8 7 7 6 6 5 5 5 4 4 3 3 2 2 2 1 1 0 -0 -1 -1 -2 -2 -3
15 15 15 15 15 14 14 14 14 13 12 12 11 10 9 9 8 8 8 7 7 6 6 5 5 4 4 4 3 3 2 2 1 1 0 -0 -1 -1 -1 -2 -3 -3 -3
14 14 14 14 14 14 14 13 13 12 12 11 10 9 9 8 8 7 7 6 6 5 5 5 4 4 3 3 3 2 2 1 1 0 -0 -1 -1 -2 -2 -3 -3 -4 -4
13 14 14 14 13 13 13 12 12 11 11 10 10 9 8 8 7 7 6 6 5 5 4 4 4 3 3 2 2 1 1 0 -0 -1 -1 -1 -2 -2 -3 -3 -4 -4 -4
13 13 13 13 13 12 12 12 11 11 10 10 9 8 8 7 6 6 5 5 4 4 3 3 3 2 2 1 1 1 0 -0 -1 -1 -2 -2 -3 -3 -4 -4 -4 -5 -5
Wind_Speed
13 11 11 12 12 13 15 17 18 17 15 14 13 12 12 11 10 11 15 17 17 17 14 9 8 8 6 6 6 4 3 1 1 1 2 3 2 2 2 2 2 3 3
10 9 9 10 14 16 17 18 18 18 18 16 15 11 9 8 8 7 12 16 17 17 15 11 8 8 6 6 6 4 3 2 2 2 1 2 4 2 2 2 1 1 2
14 11 10 12 13 15 18 17 19 19 19 16 10 8 6 5 6 9 10 12 16 17 15 14 10 9 8 8 8 7 6 4 2 2 3 2 3 3 3 2 1 2 2
12 11 10 10 13 16 15 16 17 17 17 16 15 16 13 12 12 10 10 10 14 15 16 14 13 10 8 8 8 7 5 5 4 2 1 2 3 2 3 3 2 3 3
12 11 11 12 12 12 13 14 14 15 16 17 18 18 14 11 8 7 10 10 10 12 14 14 12 10 8 9 8 7 7 5 5 4 3 2 1 2 3 4 4 3 3
9 9 8 7 8 8 10 11 13 15 16 18 18 18 17 13 11 10 11 10 8 9 11 12 12 11 9 9 9 8 9 7 6 5 4 4 4 4 4 5 4 4 4
8 7 7 8 8 10 11 11 14 14 15 17 18 18 17 16 16 14 13 11 9 8 12 11 11 10 10 10 9 8 8 8 7 7 5 5 4 4 4 4 3 3 3
8 8 8 8 9 10 11 12 14 13 15 16 17 15 14 13 11 12 11 13 11 11 11 12 12 11 11 10 9 7 8 7 8 8 7 5 5 4 4 4 3 2 3
9 9 7 7 8 9 10 12 13 13 14 15 14 13 14 13 12 12 11 10 9 9 11 12 11 11 10 10 9 7 8 8 8 7 7 5 5 5 5 4 4 4 4
8 8 7 7 7 7 7 8 10 12 11 13 13 12 13 13 12 11 12 11 10 10 11 12 11 10 10 10 9 7 7 8 7 6 7 6 5 5 5 5 5 5 5
10 8 6 5 5 5 6 7 8 9 10 11 11 11 11 11 11 11 12 11 10 11 12 12 12 11 10 10 9 8 8 9 7 6 7 8 6 5 5 4 4 5 5
7 6 5 5 5 6 7 8 8 9 9 10 10 11 10 10 11 11 11 11 11 11 11 11 11 10 10 10 10 10 9 9 9 8 8 8 6 7 6 5 6 6 6
6 5 4 5 6 6 6 7 8 8 8 9 10 10 10 11 11 11 10 10 10 10 10 10 11 10 10 10 10 10 9 9 9 8 8 8 7 7 6 6 7 6 6
6 6 6 6 6 6 6 7 7 7 8 9 10 10 10 10 10 10 9 10 10 10 10 10 10 10 9 9 9 8 8 7 7 7 7 7 8 9 8 7 7 6 6
6 8 8 7 6 6 6 7 7 7 8 9 10 10 9 9 9 9 9 9 9 9 9 8 7 7 7 7 8 8 8 7 6 6 6 7 8 10 8 6 6 6 5
9 9 8 8 8 9 8 8 8 8 8 9 9 8 8 8 9 8 8 8 8 7 8 8 8 7 6 8 11 9 7 7 7 6 6 6 7 9 11 11 10 8 6
10 10 10 10 10 10 9 10 9 8 9 9 8 8 9 9 8 8 8 8 8 7 7 7 7 7 7 9 11 11 7 7 6 6 5 4 5 7 6 8 10 9 11
10 10 9 9 8 7 7 8 8 9 9 9 8 8 9 9 8 8 8 7 6 7 6 6 6 5 5 8 9 9 6 5 5 6 6 6 5 6 6 5 5 6 7
11 10 9 8 7 8 9 10 9 9 9 9 9 9 9 9 9 8 8 6 6 6 5 5 5 5 4 6 7 7 4 4 5 4 5 5 6 8 8 5 5 6 6
8 7 7 6 8 8 10 11 10 10 10 10 9 9 9 9 9 8 7 5 6 5 5 4 4 4 4 5 6 7 4 4 3 2 3 6 6 7 7 4 5 6 7
8 7 8 8 8 10 11 11 10 10 9 8 8 8 8 8 8 7 6 6 6 6 5 4 3 3 3 4 5 6 4 4 3 3 3 4 7 7 7 6 4 8 7
7 8 8 7 7 10 12 11 10 8 9 9 9 8 7 7 7 8 7 6 7 6 5 4 2 1 1 2 4 5 4 3 3 3 3 4 6 7 7 6 7 10 7
8 7 9 9 7 8 11 12 9 10 11 10 9 8 8 7 7 8 8 6 5 5 4 4 3 1 1 1 2 3 3 3 2 2 4 4 5 5 4 7 9 6 2
8 8 10 10 8 7 8 9 11 11 12 11 9 8 8 7 6 6 6 6 5 5 4 4 3 2 1 1 1 2 2 2 2 1 2 3 3 2 3 4 4 2 2
7 9 11 11 10 9 9 9 11 12 12 11 9 8 7 8 6 5 4 5 4 5 5 4 4 4 3 3 3 2 2 2 2 1 1 0 0 1 2 2 3 2 2
8 9 9 10 10 10 10 9 10 12 13 11 9 7 7 6 6 6 5 5 4 5 5 4 4 2 2 2 2 2 2 2 2 0 0 1 2 2 3 3 3 3 3
Wind_Direction
239 229 214 206 198 195 194 195 196 195 189 191 192 194 199 198 198 198 196 194 195 193 192 192 185 180 184 186 175 161 157 160 125 80 359 349 0 26 23 27 44 36 29
244 232 215 200 199 199 198 196 197 194 192 195 195 196 191 194 196 190 194 196 196 194 195 191 188 185 184 179 177 167 156 153 134 136 99 343 334 330 353 354 8 348 351
235 232 217 208 203 202 200 198 198 195 195 190 181 169 157 155 179 193 197 198 197 196 195 193 188 185 184 189 188 180 170 175 172 153 151 163 242 294 312 312 322 319 311
234 230 219 211 206 206 200 198 196 195 193 184 183 182 189 196 198 193 195 192 195 195 195 192 190 187 187 189 189 184 178 166 177 172 156 168 167 185 296 306 299 299 282
229 226 219 212 207 200 194 195 191 192 189 187 189 190 196 198 183 174 183 190 192 194 194 192 190 189 191 191 182 179 181 180 177 175 166 161 144 169 197 272 298 306 279
226 225 217 200 195 188 186 185 186 190 188 189 190 194 195 185 175 180 188 191 191 193 193 191 191 191 190 191 190 187 184 186 182 181 175 172 174 192 193 230 261 280 286
221 220 210 197 191 186 186 184 186 190 188 189 193 196 195 189 189 188 191 189 189 195 196 192 193 193 193 190 184 185 188 187 187 190 196 196 196 175 176 197 240 267 288
221 221 215 202 197 191 186 184 188 190 187 190 195 196 193 193 196 191 189 192 197 198 190 190 194 193 189 186 183 187 191 188 193 196 194 199 205 190 185 185 189 262 289
221 219 213 201 194 190 189 188 188 188 188 191 191 192 192 193 194 191 189 192 192 187 184 188 192 191 188 186 183 192 192 188 196 198 198 204 207 201 201 193 185 192 251
218 213 208 202 195 191 187 185 187 189 187 187 189 192 193 194 192 187 190 191 188 181 181 187 190 189 188 185 185 190 189 188 197 194 197 208 208 203 200 200 201 198 206
211 209 206 198 183 172 172 178 181 180 182 185 187 187 190 190 187 190 193 191 186 183 184 187 188 188 189 185 187 192 185 192 198 196 201 212 203 204 206 202 204 209 205
206 198 192 178 174 177 177 179 179 181 183 181 182 187 186 184 188 193 191 187 185 185 185 183 185 188 188 187 189 193 191 194 200 204 204 214 205 210 210 208 213 218 214
192 189 185 186 189 187 183 182 181 181 176 174 178 181 183 186 191 192 186 183 183 181 180 181 185 188 188 189 192 193 194 199 203 203 207 212 203 216 217 216 221 224 226
195 194 199 202 199 192 186 184 183 177 171 172 177 184 187 187 188 186 181 181 180 179 182 185 187 187 186 188 189 190 194 199 204 205 208 208 208 217 218 220 224 223 226
209 206 205 205 199 194 188 184 182 175 170 172 180 186 180 176 176 176 175 174 175 178 179 179 180 180 182 189 185 188 191 195 203 208 211 214 218 223 223 225 222 214 223
219 216 209 204 202 198 191 184 181 176 169 174 180 174 168 169 171 171 167 166 169 170 168 175 177 181 192 192 192 187 189 193 199 212 218 221 226 235 240 245 243 230 227
217 212 210 207 205 197 187 184 177 165 167 173 171 167 167 169 170 164 162 167 169 165 167 174 175 186 194 190 195 193 186 192 202 208 212 222 230 235 232 247 253 251 252
218 217 210 206 199 184 174 164 156 161 167 169 168 166 164 165 161 159 164 166 163 165 170 174 177 182 194 192 196 195 187 194 204 208 210 216 228 231 232 226 237 244 251
214 213 204 195 180 173 164 152 154 157 163 171 172 169 164 161 159 163 166 162 158 161 166 167 169 180 195 190 190 180 175 198 214 215 213 217 226 245 249 236 242 255 260
208 198 181 167 169 167 153 151 157 161 173 176 170 162 159 159 162 164 158 152 153 155 150 149 164 175 186 188 187 177 173 194 211 218 225 234 242 252 252 239 238 259 265
201 182 167 169 172 159 151 153 158 174 173 155 147 148 151 153 152 146 144 142 138 134 137 141 146 163 175 185 188 185 179 191 199 213 226 238 254 260 261 263 246 263 277
184 168 161 162 155 154 152 154 166 161 143 138 138 141 142 140 137 135 134 135 138 138 140 139 133 134 154 171 193 199 203 195 191 217 225 238 260 267 271 275 279 287 297
173 162 155 148 148 156 157 158 159 144 137 134 136 135 130 129 135 139 140 138 140 144 149 151 162 165 148 200 209 210 218 224 214 225 250 263 270 275 273 281 290 299 296
167 156 148 147 153 155 152 149 143 140 136 136 136 135 133 129 125 129 139 145 153 153 155 163 172 172 171 205 208 207 216 239 248 239 257 276 288 299 301 299 302 296 263
158 154 155 154 154 146 140 140 141 138 134 134 134 133 132 134 128 120 129 143 160 168 168 178 174 173 202 225 216 197 197 203 208 166 107 66 316 296 294 290 285 280 284
149 145 144 144 144 141 139 140 141 140 137 136 137 137 135 132 131 125 100 85 109 123 131 146 155 183 205 208 213 235 249 257 246 122 176 242 253 262 270 276 283 279 273
Height
1461 1464 1467 1469 1472 1475 1478 1481 1485 1488 1492 1496 1499 1503 1506 1510 1513 1517 1520 1524 1527 1530 1533 1535 1537 1539 1540 1541 1542 1543 1544 1544 1544 1544 1543 1542 1541 1541 1540 1540 1539 1538 1537
1454 1457 1460 1462 1465 1468 1471 1474 1477 1482 1485 1489 1492 1496 1501 1505 1509 1512 1516 1520 1523 1526 1529 1531 1533 1535 1537 1538 1540 1541 1541 1542 1542 1542 1542 1541 1541 1539 1539 1538 1537 1537 1536
1446 1449 1452 1455 1457 1460 1463 1467 1471 1475 1479 1483 1488 1492 1497 1500 1504 1507 1510 1514 1518 1522 1524 1527 1530 1532 1534 1535 1536 1538 1539 1539 1540 1540 1541 1539 1538 1537 1537 1536 1535 1534 1533
1439 1442 1444 1447 1450 1453 1457 1461 1465 1468 1472 1477 1481 1484 1488 1491 1495 1500 1505 1510 1513 1517 1520 1523 1526 1528 1530 1532 1533 1534 1536 1536 1537 1537 1537 1538 1537 1536 1534 1534 1533 1532 1531
1432 1434 1437 1440 1443 1447 1451 1454 1458 1462 1466 1470 1474 1478 1482 1486 1491 1496 1500 1505 1508 1512 1515 1518 1521 1523 1525 1527 1529 1530 1532 1533 1533 1534 1534 1534 1533 1533 1532 1530 1529 1528 1527
1426 1428 1431 1434 1437 1441 1445 1448 1452 1456 1460 1464 1468 1472 1476 1481 1485 1490 1494 1499 1503 1506 1510 1513 1516 1519 1521 1523 1525 1526 1527 1528 1529 1530 1530 1530 1530 1529 1529 1527 1525 1524 1523
1421 1423 1426 1429 1432 1435 1439 1443 1447 1450 1454 1458 1462 1467 1471 1476 1480 1484 1489 1493 1497 1500 1504 1508 1511 1513 1516 1518 1520 1522 1523 1524 1525 1526 1526 1526 1526 1526 1525 1524 1522 1520 1518
1416 1419 1421 1424 1427 1430 1434 1438 1441 1445 1449 1453 1457 1462 1466 1471 1475 1479 1484 1488 1491 1495 1499 1502 1505 1508 1511 1513 1515 1517 1518 1519 1520 1521 1522 1522 1522 1521 1521 1520 1519 1515 1513
1412 1414 1417 1420 1423 1426 1430 1433 1437 1440 1444 1448 1452 1457 1461 1465 1470 1474 1479 1483 1486 1490 1494 1497 1500 1503 1506 1508 1510 1512 1513 1514 1515 1516 1517 1517 1517 1517 1516 1515 1514 1513 1509
1407 1410 1414 1417 1420 1423 1426 1429 1432 1436 1439 1443 1447 1451 1456 1460 1465 1469 1473 1477 1481 1485 1488 1491 1494 1497 1500 1502 1505 1506 1508 1509 1510 1511 1512 1512 1512 1512 1511 1510 1510 1508 1506
1403 1407 1410 1414 1417 1420 1422 1425 1429 1432 1435 1439 1443 1447 1451 1455 1459 1464 1468 1472 1476 1479 1482 1485 1488 1491 1494 1497 1499 1501 1502 1503 1505 1506 1506 1507 1507 1506 1506 1505 1504 1503 1501
1400 1404 1407 1410 1413 1416 1419 1422 1425 1428 1432 1435 1439 1442 1446 1450 1454 1458 1463 1467 1470 1474 1477 1480 1483 1485 1488 1491 1493 1495 1496 1498 1499 1500 1501 1501 1501 1500 1500 1499 1498 1497 1495
1397 1401 1404 1407 1410 1413 1416 1419 1422 1425 1428 1432 1435 1438 1442 1446 1449 1454 1458 1462 1465 1468 1471 1474 1477 1480 1482 1485 1487 1489 1491 1492 1493 1494 1494 1495 1495 1494 1494 1493 1492 1490 1489
1394 1398 1401 1404 1407 1410 1413 1416 1419 1422 1425 1428 1431 1434 1438 1441 1445 1449 1453 1456 1460 1463 1466 1469 1472 1474 1477 1479 1481 1483 1484 1486 1487 1488 1488 1488 1488 1488 1487 1486 1485 1484 1482
1392 1394 1398 1401 1404 1407 1410 1413 1416 1418 1421 1424 1427 1430 1434 1437 1441 1445 1448 1452 1455 1458 1461 1464 1466 1469 1471 1473 1475 1477 1479 1480 1481 1481 1482 1482 1482 1481 1481 1480 1479 1478 1476
1388 1391 1394 1398 1401 1404 1407 1409 1412 1415 1418 1420 1423 1427 1430 1433 1437 1440 1444 1447 1450 1453 1456 1459 1461 1463 1466 1468 1470 1471 1472 1473 1474 1475 1475 1475 1475 1475 1474 1473 1472 1471 1470
1385 1388 1391 1394 1397 1400 1403 1406 1409 1411 1414 1417 1420 1423 1426 1429 1433 1436 1440 1443 1445 1448 1451 1454 1456 1459 1461 1463 1464 1465 1466 1467 1468 1468 1469 1469 1469 1468 1467 1467 1466 1465 1463
1380 1383 1387 1390 1393 1396 1399 1402 1405 1408 1410 1413 1416 1419 1422 1426 1429 1432 1435 1438 1441 1444 1447 1449 1451 1454 1456 1457 1459 1460 1460 1461 1461 1462 1462 1462 1462 1462 1461 1459 1458 1457 1456
1376 1379 1382 1385 1389 1392 1395 1398 1401 1403 1406 1409 1412 1415 1419 1422 1425 1428 1431 1434 1437 1440 1442 1445 1446 1448 1450 1452 1453 1454 1454 1454 1455 1456 1456 1456 1456 1455 1454 1453 1451 1450 1449
1369 1373 1376 1380 1383 1387 1390 1393 1396 1399 1402 1405 1409 1412 1415 1418 1421 1424 1427 1430 1433 1436 1438 1440 1442 1443 1445 1446 1447 1448 1448 1449 1449 1450 1450 1450 1449 1449 1448 1446 1445 1443 1441
1363 1366 1370 1373 1377 1382 1385 1388 1392 1395 1399 1402 1406 1409 1412 1415 1418 1421 1424 1427 1429 1431 1433 1435 1437 1438 1440 1441 1442 1442 1443 1443 1443 1443 1444 1444 1443 1443 1442 1441 1439 1437 1435
1356 1360 1363 1367 1372 1376 1380 1384 1388 1392 1395 1399 1402 1406 1409 1412 1415 1417 1420 1423 1425 1427 1429 1430 1432 1434 1435 1436 1437 1437 1438 1438 1438 1438 1438 1438 1437 1437 1436 1434 1433 1431 1429
1350 1354 1358 1362 1367 1372 1376 1380 1384 1388 1392 1396 1399 1402 1406 1409 1411 1414 1416 1419 1421 1423 1424 1426 1427 1429 1430 1431 1432 1433 1433 1433 1433 1433 1433 1432 1431 1431 1430 1428 1427 1425 1423
1344 1348 1353 1357 1362 1367 1372 1376 1380 1384 1388 1392 1396 1399 1402 1405 1408 1411 1413 1415 1417 1418 1420 1422 1423 1424 1425 1426 1427 1427 1428 1428 1428 1428 1427 1427 1426 1425 1424 1423 1421 1420 1418
1339 1343 1348 1353 1358 1363 1368 1373 1377 1381 1385 1389 1393 1396 1399 1402 1405 1407 1410 1412 1413 1415 1417 1418 1419 1420 1421 1422 1423 1423 1423 1423 1423 1422 1421 1421 1420 1419 1418 1417 1416 1414 1413
1335 1340 1345 1349 1354 1359 1364 1369 1374 1378 1382 1385 1389 1392 1396 1399 1401 1404 1406 1408 1411 1412 1414 1415 1416 1416 1417 1418 1418 1418 1418 1418 1418 1417 1416 1415 1415 1414 1413 1411 1410 1409 1407